Regional Weather Roundup
Issued by NWS Lake Charles, LA

Home | Current Version | Previous Version | Text Only | Print | Product List | Glossary On
Versions: 1 2 3 4 5 6 7 8 9 10 11 12 13 14 15 16 17 18 19 20 21 22 23 24 25 26 27 28 29 30 31 32 33 34 35 36 37 38 39 40 41 42 43 44 45 46 47 48 49
000
ASUS44 KLCH 281610
RWRLCH
RWRLCH
REGIONAL WEATHER ROUNDUP
NATIONAL WEATHER SERVICE LAKE CHARLES LA
1100 AM CDT THU MAY 28 2015

Note: "fair" indicates few or no clouds below 12,000 feet with no
significant weather and/or obstructions to visibility.


ACROSS SOUTHEAST TEXAS

CITY           SKY/WX    TMP DP  RH WIND       PRES   REMARKS
BEAUMONT       SUNNY     86  71  60 S7        30.08R
BEAUMONT CITY    N/A     84  74  70 S5        30.10R
ORANGE         MOSUNNY   83  72  68 S5        30.11R
JASPER         SUNNY     84  74  71 SE5       30.13S
$$

ACROSS CENTRAL LOUISIANA

CITY           SKY/WX    TMP DP  RH WIND       PRES   REMARKS
LEESVILLE      SUNNY     83  71  68 VRB3      30.11R
FULLERTON      NOT AVBL
ALEXANDRIA INT SUNNY     82  71  69 VRB3      30.10R
ESLER FIELD    MOSUNNY   83  70  64 SE6       30.12R
DERIDDER         N/A     82  71  69 CALM      30.13R
OAKDALE        SUNNY     82  71  67 CALM      30.11R
OPELOUSAS        N/A    N/A N/A N/A S3        30.11S
$$

ACROSS SOUTHWEST AND SOUTH CENTRAL LOUISIANA

CITY           SKY/WX    TMP DP  RH WIND       PRES   REMARKS
SULPHUR        MOSUNNY   85  74  70 SE5       30.11R
LAKE CHARLES   MOSUNNY   82  72  71 VRB3      30.10R
CHENNAULT INT  NOT AVBL
CAMERON PHI    SUNNY     81  73  78 S8        30.12S
DEQUINCY         N/A     81  75  80 CALM      30.11R
JENNINGS       PTSUNNY   82  72  72 CALM      30.10S
LAFAYETTE      PTSUNNY   83  70  64 VRB3      30.11R
NEW IBERIA     MOSUNNY   83  70  64 S6        30.11S
ABBEVILLE        N/A     80  71  73 CALM      30.11R
PATTERSON      PTSUNNY   82  72  69 SW7       30.12S
SALT POINT     NOT AVBL
$$

SELECTED SITES ACROSS THE REGION

CITY           SKY/WX    TMP DP  RH WIND       PRES   REMARKS
HOUSTON BUSH   PTSUNNY   86  74  67 S8        30.08R
HOUSTON HOBBY  MOSUNNY   84  74  71 S7        30.07R
GALVESTON      PTSUNNY   82  78  88 SE12      30.09S
COLLEGE STAT   PTSUNNY   82  73  74 S12       30.08R
CONROE         PTSUNNY   83  72  69 VRB7      30.10R
HUNTSVILLE     PTSUNNY   82  72  71 VRB5      30.10S
LUFKIN         MOSUNNY   84  72  67 VRB5      30.11R
SHREVEPORT     PTSUNNY   83  70  64 W6        30.11R
MONROE         SUNNY     81  71  71 SE3       30.14R
NATCHEZ MS     MOSUNNY   81  70  69 W5        30.13R
BATON ROUGE    SUNNY     83  69  62 CALM      30.11S
N.O. INTL ARPT PTSUNNY   84  67  56 CALM      30.11S
SLIDELL        MOSUNNY   83  72  69 S6        30.11S
$$

MARINE REPORTS

STATION/POSITION TIME  TEMP    WIND        PRES    VSBY  WAVE
                       AIR SEA DIR/SP/G                  HT/PER
                 (UTC) (F)     (DEG/KT/KT) (MB)    (MI)  (FT/S)
BUOY 30 S HIGH I 1550   79 81  130/ 10/ 12 1017.9F         3/ 7
SEA RIM ST PARK  1600   80     150/  7/  9 1019.3R
PORT ARTHUR      1500      76  150/  5/  7 1018.7F
SABINE PASS N    1500   79 78  150/  9/ 10 1018.9F
TEXAS POINT      NOT AVBL
CALCASIEU PASS   1500   79 79  180/  7/  8   N/A
LK CHARLES BEACH 1500   81 77              1019.2F
MARSH ISLAND     1500   78     110/  5/  6   N/A           0
FRESH WATER LOCK 1500   79 80  160/  6/  8   N/A
AMERADA PASS     1500   80 76   90/  1/  3 1019.3F
$$


USA.gov is the U.S. government's official web portal to all federal, state and local government web resources and services.